CES5402 ZGDY-RJCH

Flight info

Callsign CES5402
Flight time N/A
Altitude 35100
Route LIN A581 WHA R343 PK A593 AKARA/K0843F350 A593 LAMEN/N0456F350 A593 SADLI Y590 ELGEP/N0451F370 Y590 BEDAR Y591 FUE V28 DGC Y14 SAMON Z17 MRE V31 TAXIR YAKEI
Aircraft A320/M-SDE2E3FGILRWXY/LB2

Departure

Time N/A
Airport Zhangjiajie Hehua International Airport (ZGDY)

Arrival

Time 2026-05-07 06:15
Airport Hakodate Airport (RJCH)
Time Latitude Longitude Altitude Speed Heading
2026-05-07 04:04 31.71009 124.44949 35083 ft 496 kts 75°
2026-05-07 04:05 31.72738 124.52836 35085 ft 505 kts 75°
2026-05-07 04:05 31.74506 124.60910 35090 ft 513 kts 75°
2026-05-07 04:06 31.76287 124.69030 35086 ft 513 kts 75°
2026-05-07 04:06 31.78061 124.77151 35086 ft 513 kts 75°
2026-05-07 04:07 31.79832 124.85277 35084 ft 513 kts 75°
2026-05-07 04:07 31.81579 124.93399 35088 ft 512 kts 75°
2026-05-07 04:08 31.82395 125.01669 35089 ft 510 kts 93°
2026-05-07 04:08 31.81404 125.09894 35091 ft 509 kts 102°
2026-05-07 04:09 31.80065 125.18060 35089 ft 508 kts 102°
2026-05-07 04:09 31.78719 125.26215 35092 ft 508 kts 102°
2026-05-07 04:10 31.77376 125.34356 35089 ft 507 kts 102°
2026-05-07 04:10 31.76028 125.42491 35091 ft 507 kts 102°
2026-05-07 04:11 31.74694 125.50563 35099 ft 507 kts 102°
2026-05-07 04:11 31.73342 125.58686 35096 ft 507 kts 102°
2026-05-07 04:12 31.72713 125.66911 35100 ft 507 kts 86°
2026-05-07 04:12 31.73981 125.75005 35100 ft 504 kts 73°
2026-05-07 04:13 31.75769 125.82969 35106 ft 504 kts 73°
2026-05-07 04:13 31.77523 125.90949 35110 ft 504 kts 74°
2026-05-07 04:14 31.79260 125.98937 35117 ft 504 kts 74°
2026-05-07 04:14 31.80998 126.06911 35114 ft 504 kts 73°
2026-05-07 04:15 31.82746 126.14881 35121 ft 503 kts 73°
2026-05-07 04:15 31.84483 126.22852 35118 ft 502 kts 74°
2026-05-07 04:16 31.86199 126.30811 35124 ft 502 kts 74°
2026-05-07 04:16 31.87910 126.38756 35122 ft 501 kts 74°
2026-05-07 04:17 31.89625 126.46703 35124 ft 501 kts 74°
2026-05-07 04:17 31.91344 126.54635 35119 ft 500 kts 74°
2026-05-07 04:18 31.93105 126.62554 35120 ft 500 kts 74°
2026-05-07 04:18 31.94849 126.70412 35119 ft 500 kts 75°
2026-05-07 04:19 31.96589 126.78336 35120 ft 499 kts 75°
2026-05-07 04:19 31.98316 126.86254 35121 ft 499 kts 75°
2026-05-07 04:20 32.00045 126.94171 35124 ft 499 kts 75°
2026-05-07 04:20 32.01763 127.02086 35121 ft 498 kts 75°
2026-05-07 04:21 32.04591 127.13844 35118 ft 496 kts 65°
2026-05-07 04:21 32.07397 127.21272 35119 ft 496 kts 65°
2026-05-07 04:22 32.10196 127.28708 35115 ft 496 kts 65°
2026-05-07 04:22 32.12988 127.36145 35113 ft 496 kts 65°
2026-05-07 04:23 32.15781 127.43583 35107 ft 496 kts 65°
2026-05-07 04:23 32.18577 127.51037 35105 ft 497 kts 65°
2026-05-07 04:24 32.21364 127.58501 35109 ft 497 kts 65°
2026-05-07 04:24 32.24154 127.65979 35110 ft 497 kts 65°
2026-05-07 04:25 32.26940 127.73462 35114 ft 498 kts 65°
2026-05-07 04:25 32.29723 127.80953 35108 ft 498 kts 66°
2026-05-07 04:26 32.32506 127.88454 35102 ft 498 kts 66°
2026-05-07 04:26 32.35279 127.95968 35098 ft 499 kts 66°
2026-05-07 04:27 32.38046 128.03501 35096 ft 500 kts 66°
2026-05-07 04:27 32.40799 128.11001 35093 ft 501 kts 66°
2026-05-07 04:28 32.43582 128.18560 35091 ft 501 kts 66°
2026-05-07 04:28 32.46365 128.26129 35092 ft 502 kts 66°
2026-05-07 04:29 32.49140 128.33725 35089 ft 503 kts 66°
2026-05-07 04:29 32.51911 128.41338 35090 ft 503 kts 66°
2026-05-07 04:30 32.54681 128.48963 35085 ft 504 kts 66°
2026-05-07 04:30 32.57453 128.56603 35077 ft 505 kts 66°
2026-05-07 04:31 32.60222 128.64256 35068 ft 506 kts 67°
2026-05-07 04:31 32.62974 128.71880 35086 ft 501 kts 65°
2026-05-07 04:32 32.65715 128.79468 35098 ft 499 kts 64°
2026-05-07 04:32 32.69323 128.86424 35099 ft 494 kts 49°
2026-05-07 04:33 32.73554 128.92832 35102 ft 493 kts 50°
2026-05-07 04:33 32.77773 128.99256 35106 ft 493 kts 50°
2026-05-07 04:34 32.81975 129.05680 35107 ft 492 kts 50°
2026-05-07 04:34 32.86172 129.12103 35109 ft 492 kts 50°
2026-05-07 04:35 32.90363 129.18534 35109 ft 492 kts 50°
2026-05-07 04:35 32.94559 129.24973 35107 ft 492 kts 50°
2026-05-07 04:36 32.98724 129.31373 35110 ft 492 kts 50°
2026-05-07 04:36 33.02917 129.37826 35103 ft 493 kts 50°
2026-05-07 04:37 33.07104 129.44292 35098 ft 493 kts 50°
2026-05-07 04:37 33.11297 129.50763 35095 ft 493 kts 50°
2026-05-07 04:38 33.14806 129.56193 35095 ft 493 kts 51°
2026-05-07 04:38 33.18965 129.62645 35091 ft 493 kts 51°
2026-05-07 04:39 33.23176 129.69192 35089 ft 494 kts 51°
2026-05-07 04:39 33.27321 129.75655 35089 ft 494 kts 51°
2026-05-07 04:40 33.31529 129.82219 35085 ft 494 kts 51°
2026-05-07 04:40 33.35680 129.88688 35085 ft 494 kts 51°
2026-05-07 04:41 33.39889 129.95261 35084 ft 494 kts 50°
2026-05-07 04:41 33.44054 130.01792 35080 ft 494 kts 51°
2026-05-07 04:42 33.48185 130.08294 35079 ft 494 kts 51°
2026-05-07 04:42 33.52344 130.14844 35078 ft 494 kts 51°
2026-05-07 04:43 33.56510 130.21403 35078 ft 494 kts 51°
2026-05-07 04:43 33.60674 130.27955 35081 ft 494 kts 51°
2026-05-07 04:44 33.64829 130.34528 35081 ft 494 kts 51°
2026-05-07 04:44 33.69196 130.40872 35085 ft 491 kts 43°
2026-05-07 04:45 33.74022 130.46695 35066 ft 491 kts 43°
2026-05-07 04:45 33.78842 130.52521 35070 ft 491 kts 43°
2026-05-07 04:46 33.83653 130.58353 35074 ft 491 kts 43°
2026-05-07 04:46 33.88465 130.64192 35080 ft 491 kts 43°
2026-05-07 04:47 33.93271 130.70040 35079 ft 491 kts 43°
2026-05-07 04:47 33.98076 130.75892 35081 ft 491 kts 43°
2026-05-07 04:48 34.02869 130.81752 35086 ft 491 kts 43°
2026-05-07 04:48 34.07663 130.87628 35092 ft 491 kts 43°
2026-05-07 04:49 34.12464 130.93503 35083 ft 492 kts 43°
2026-05-07 04:49 34.17258 130.99386 35074 ft 492 kts 44°
2026-05-07 04:50 34.21751 131.05635 35080 ft 493 kts 49°
2026-05-07 04:50 34.26014 131.12060 35072 ft 493 kts 49°
2026-05-07 04:51 34.30335 131.18588 35073 ft 494 kts 50°
2026-05-07 04:51 34.34597 131.25042 35084 ft 494 kts 50°
2026-05-07 04:52 34.38887 131.31544 35077 ft 494 kts 50°
2026-05-07 04:52 34.43179 131.38052 35084 ft 494 kts 50°
2026-05-07 04:53 34.47463 131.44573 35089 ft 495 kts 50°
2026-05-07 04:53 34.51751 131.51099 35092 ft 495 kts 50°
2026-05-07 04:54 34.56032 131.57631 35088 ft 494 kts 50°
2026-05-07 04:54 34.60304 131.64169 35085 ft 494 kts 50°
2026-05-07 04:55 34.64569 131.70717 35090 ft 494 kts 50°
2026-05-07 04:55 34.68829 131.77261 35312 ft 493 kts 50°
2026-05-07 04:56 34.70952 131.80525 35657 ft 492 kts 50°
2026-05-07 04:56 34.73073 131.83791 35969 ft 492 kts 50°
2026-05-07 04:56 34.75190 131.87056 36268 ft 492 kts 50°
2026-05-07 04:56 34.77307 131.90326 36555 ft 491 kts 50°
2026-05-07 04:57 34.79419 131.93590 36831 ft 491 kts 50°
2026-05-07 04:57 34.81538 131.96864 36963 ft 492 kts 50°
2026-05-07 04:57 34.85770 132.03406 36977 ft 492 kts 50°
2026-05-07 04:58 34.89999 132.09954 36974 ft 492 kts 50°
2026-05-07 04:58 34.94219 132.16513 36966 ft 492 kts 50°
2026-05-07 04:59 34.98437 132.23086 36972 ft 492 kts 50°
2026-05-07 04:59 35.02648 132.29667 36965 ft 492 kts 50°
2026-05-07 05:00 35.06861 132.36251 36962 ft 492 kts 50°
2026-05-07 05:00 35.11076 132.42844 36968 ft 493 kts 50°
2026-05-07 05:01 35.15289 132.49454 36974 ft 493 kts 50°
2026-05-07 05:01 35.19496 132.56066 36973 ft 493 kts 50°
2026-05-07 05:02 35.23704 132.62696 36973 ft 493 kts 50°
2026-05-07 05:02 35.27906 132.69325 36963 ft 493 kts 51°
2026-05-07 05:03 35.32112 132.75971 36965 ft 493 kts 51°
2026-05-07 05:03 35.36310 132.82618 36955 ft 493 kts 51°
2026-05-07 05:04 35.40503 132.89278 36964 ft 494 kts 51°
2026-05-07 05:04 35.44689 132.95950 36954 ft 493 kts 51°
2026-05-07 05:05 35.48875 133.02620 36958 ft 494 kts 51°
2026-05-07 05:05 35.53045 133.09313 36978 ft 494 kts 54°
2026-05-07 05:06 35.56739 133.16434 36963 ft 494 kts 57°
2026-05-07 05:06 35.60387 133.23524 36960 ft 495 kts 57°
2026-05-07 05:07 35.64061 133.30671 36961 ft 495 kts 57°
2026-05-07 05:07 35.67728 133.37842 36961 ft 495 kts 57°
2026-05-07 05:08 35.71388 133.45021 36963 ft 495 kts 57°
2026-05-07 05:08 35.75046 133.52197 36962 ft 495 kts 57°
2026-05-07 05:09 35.78707 133.59398 36966 ft 496 kts 57°
2026-05-07 05:09 35.82361 133.66598 36965 ft 496 kts 57°
2026-05-07 05:10 35.86015 133.73820 37248 ft 499 kts 58°
2026-05-07 05:10 35.87874 133.77503 37021 ft 511 kts 58°
2026-05-07 05:10 35.89767 133.81255 36957 ft 520 kts 58°
2026-05-07 05:11 35.93631 133.88911 36957 ft 531 kts 58°
2026-05-07 05:11 35.97554 133.96699 36954 ft 535 kts 58°
2026-05-07 05:12 36.01455 134.04464 36957 ft 536 kts 58°
2026-05-07 05:12 36.05388 134.12308 36965 ft 537 kts 58°
2026-05-07 05:13 36.09314 134.20165 36965 ft 538 kts 58°
2026-05-07 05:13 36.13239 134.28045 36964 ft 538 kts 58°
2026-05-07 05:14 36.17157 134.35926 36965 ft 538 kts 58°
2026-05-07 05:14 36.21073 134.43820 36966 ft 538 kts 58°
2026-05-07 05:15 36.25289 134.51463 36974 ft 536 kts 46°
2026-05-07 05:15 36.30472 134.58062 36971 ft 534 kts 42°
2026-05-07 05:16 36.35702 134.64613 36974 ft 535 kts 43°
2026-05-07 05:16 36.40921 134.71189 36974 ft 535 kts 43°
2026-05-07 05:17 36.46137 134.77774 36974 ft 534 kts 43°
2026-05-07 05:17 36.51314 134.84316 36968 ft 534 kts 43°
2026-05-07 05:18 36.56522 134.90906 36985 ft 534 kts 43°
2026-05-07 05:18 36.61720 134.97497 36979 ft 534 kts 43°
2026-05-07 05:19 36.66918 135.04100 36987 ft 533 kts 43°
2026-05-07 05:19 36.72100 135.10698 36984 ft 532 kts 43°
2026-05-07 05:20 36.77271 135.17297 36991 ft 531 kts 43°
2026-05-07 05:20 36.82420 135.23904 36987 ft 531 kts 43°
2026-05-07 05:21 36.90143 135.33808 36978 ft 530 kts 43°
2026-05-07 05:22 36.95286 135.40401 36979 ft 530 kts 43°
2026-05-07 05:22 37.00417 135.47011 36982 ft 529 kts 43°
2026-05-07 05:23 37.05538 135.53628 36973 ft 529 kts 43°
2026-05-07 05:23 37.10645 135.60237 36974 ft 528 kts 43°
2026-05-07 05:24 37.15714 135.66804 36982 ft 527 kts 43°
2026-05-07 05:24 37.20805 135.73414 36975 ft 527 kts 43°
2026-05-07 05:25 37.25889 135.80021 36979 ft 526 kts 43°
2026-05-07 05:25 37.30967 135.86642 36964 ft 526 kts 43°
2026-05-07 05:26 37.36035 135.93264 36974 ft 525 kts 43°
2026-05-07 05:26 37.41091 135.99893 36978 ft 525 kts 43°
2026-05-07 05:27 37.46137 136.06526 36977 ft 524 kts 43°
2026-05-07 05:27 37.50323 136.12034 36973 ft 524 kts 43°
2026-05-07 05:28 37.55356 136.18664 36967 ft 523 kts 43°
2026-05-07 05:28 37.60366 136.25295 36971 ft 522 kts 44°
2026-05-07 05:29 37.65371 136.31947 36968 ft 522 kts 44°
2026-05-07 05:29 37.70367 136.38593 36974 ft 522 kts 44°
2026-05-07 05:30 37.75359 136.45231 36967 ft 521 kts 44°
2026-05-07 05:30 37.80346 136.51883 36967 ft 521 kts 44°
2026-05-07 05:31 37.85322 136.58545 36973 ft 521 kts 44°
2026-05-07 05:31 37.90291 136.65205 36978 ft 520 kts 44°
2026-05-07 05:32 37.95255 136.71855 36971 ft 520 kts 44°
2026-05-07 05:32 37.97723 136.75170 36869 ft 512 kts 44°
2026-05-07 05:32 38.00158 136.78450 36964 ft 510 kts 44°
2026-05-07 05:33 38.05004 136.84984 36947 ft 508 kts 44°
2026-05-07 05:33 38.09838 136.91523 36950 ft 508 kts 44°
2026-05-07 05:34 38.14667 136.98071 36949 ft 508 kts 44°
2026-05-07 05:34 38.19506 137.04625 36950 ft 508 kts 44°
2026-05-07 05:35 38.24343 137.11187 36957 ft 509 kts 44°
2026-05-07 05:35 38.29146 137.17736 36959 ft 510 kts 44°
2026-05-07 05:36 38.33985 137.24350 36954 ft 510 kts 44°
2026-05-07 05:36 38.38827 137.30971 36953 ft 511 kts 44°
2026-05-07 05:37 38.43673 137.37602 36952 ft 511 kts 44°
2026-05-07 05:37 38.48521 137.44261 36956 ft 512 kts 44°
2026-05-07 05:38 38.53363 137.50925 36954 ft 512 kts 44°
2026-05-07 05:38 38.58207 137.57617 36958 ft 513 kts 44°
2026-05-07 05:39 38.63044 137.64319 36957 ft 513 kts 44°
2026-05-07 05:39 38.67896 137.71027 36960 ft 514 kts 44°
2026-05-07 05:40 38.72749 137.77755 36962 ft 514 kts 44°
2026-05-07 05:40 38.77596 137.84500 36964 ft 515 kts 44°
2026-05-07 05:41 38.82439 137.91272 36961 ft 515 kts 44°
2026-05-07 05:41 38.87286 137.98054 36960 ft 516 kts 44°
2026-05-07 05:42 38.92136 138.04844 36957 ft 516 kts 44°
2026-05-07 05:42 38.96982 138.11633 36957 ft 516 kts 44°
2026-05-07 05:43 39.01837 138.18454 36957 ft 517 kts 44°
2026-05-07 05:43 39.06689 138.25289 36956 ft 517 kts 44°
2026-05-07 05:44 39.11533 138.32133 36963 ft 518 kts 44°
2026-05-07 05:44 39.16393 138.39012 36876 ft 523 kts 44°
2026-05-07 05:44 39.18835 138.42474 36643 ft 520 kts 44°
2026-05-07 05:45 39.21267 138.45921 36381 ft 519 kts 44°
2026-05-07 05:45 39.23668 138.49322 36150 ft 520 kts 44°
2026-05-07 05:45 39.26098 138.52778 35908 ft 520 kts 44°
2026-05-07 05:45 39.28525 138.56241 35660 ft 521 kts 44°
2026-05-07 05:46 39.30953 138.59708 35417 ft 521 kts 44°
2026-05-07 05:46 39.33391 138.63184 35177 ft 522 kts 44°
2026-05-07 05:46 39.35832 138.66661 34938 ft 523 kts 44°
2026-05-07 05:46 39.38276 138.70148 34703 ft 524 kts 44°
2026-05-07 05:47 39.40722 138.73645 34473 ft 524 kts 44°
2026-05-07 05:47 39.43167 138.77147 34242 ft 525 kts 44°
2026-05-07 05:47 39.45616 138.80657 34010 ft 526 kts 44°
2026-05-07 05:47 39.48067 138.84177 33762 ft 527 kts 44°
2026-05-07 05:48 39.50517 138.87704 33499 ft 527 kts 44°
2026-05-07 05:48 39.52968 138.91238 33242 ft 528 kts 45°
2026-05-07 05:48 39.55423 138.94779 32981 ft 528 kts 45°
2026-05-07 05:48 39.57878 138.98324 32747 ft 529 kts 45°
2026-05-07 05:49 39.60302 139.01826 32490 ft 529 kts 45°
2026-05-07 05:49 39.62791 139.05426 32234 ft 530 kts 45°
2026-05-07 05:49 39.65213 139.08937 31993 ft 530 kts 45°
2026-05-07 05:49 39.67676 139.12506 31745 ft 530 kts 45°
2026-05-07 05:50 39.70139 139.16076 31499 ft 531 kts 45°
2026-05-07 05:50 39.72601 139.19650 31251 ft 532 kts 45°
2026-05-07 05:50 39.75067 139.23232 31018 ft 532 kts 45°
2026-05-07 05:50 39.77541 139.26827 30786 ft 533 kts 45°
2026-05-07 05:51 39.80009 139.30423 30549 ft 533 kts 45°
2026-05-07 05:51 39.82474 139.34023 30319 ft 533 kts 45°
2026-05-07 05:51 39.84942 139.37632 30092 ft 534 kts 45°
2026-05-07 05:51 39.87411 139.41248 29837 ft 534 kts 45°
2026-05-07 05:52 39.89876 139.44863 29566 ft 535 kts 45°
2026-05-07 05:52 39.92345 139.48489 29297 ft 535 kts 45°
2026-05-07 05:52 39.94816 139.52119 29035 ft 535 kts 45°
2026-05-07 05:52 39.97287 139.55749 28772 ft 535 kts 45°
2026-05-07 05:53 39.99758 139.59379 28507 ft 536 kts 45°
2026-05-07 05:53 40.02231 139.63017 28249 ft 536 kts 45°
2026-05-07 05:53 40.04702 139.66663 27980 ft 535 kts 45°
2026-05-07 05:53 40.07160 139.70297 27726 ft 533 kts 45°
2026-05-07 05:54 40.09611 139.73925 27485 ft 531 kts 45°
2026-05-07 05:54 40.12049 139.77534 27236 ft 529 kts 45°
2026-05-07 05:54 40.14478 139.81134 26979 ft 527 kts 45°
2026-05-07 05:54 40.16894 139.84717 26730 ft 525 kts 45°
2026-05-07 05:55 40.19302 139.88288 26491 ft 523 kts 45°
2026-05-07 05:55 40.21706 139.91855 26245 ft 521 kts 45°
2026-05-07 05:55 40.24096 139.95409 26003 ft 519 kts 45°
2026-05-07 05:55 40.26473 139.98950 25766 ft 517 kts 45°
2026-05-07 05:56 40.28841 140.02486 25532 ft 515 kts 45°
2026-05-07 05:56 40.31198 140.06016 25293 ft 514 kts 45°
2026-05-07 05:56 40.33544 140.09534 25060 ft 512 kts 45°
2026-05-07 05:56 40.35884 140.13041 24833 ft 510 kts 45°
2026-05-07 05:57 40.38214 140.16537 24599 ft 508 kts 45°
2026-05-07 05:57 40.40536 140.20025 24371 ft 506 kts 45°
2026-05-07 05:57 40.42845 140.23496 24140 ft 504 kts 45°
2026-05-07 05:57 40.45146 140.26958 23913 ft 502 kts 45°
2026-05-07 05:58 40.47436 140.30407 23689 ft 500 kts 45°
2026-05-07 05:58 40.49719 140.33847 23459 ft 499 kts 45°
2026-05-07 05:58 40.51988 140.37274 23171 ft 496 kts 45°
2026-05-07 05:58 40.54247 140.40688 22901 ft 494 kts 45°
2026-05-07 05:59 40.56493 140.44084 22636 ft 492 kts 46°
2026-05-07 05:59 40.58737 140.47479 22374 ft 490 kts 46°
2026-05-07 05:59 40.60966 140.50856 22112 ft 488 kts 46°
2026-05-07 05:59 40.63157 140.54180 21865 ft 486 kts 46°
2026-05-07 06:00 40.65391 140.57583 21601 ft 484 kts 46°
2026-05-07 06:00 40.67556 140.60886 21350 ft 482 kts 46°
2026-05-07 06:00 40.69780 140.64163 21101 ft 477 kts 41°
2026-05-07 06:00 40.72304 140.66950 20853 ft 469 kts 30°
2026-05-07 06:01 40.75091 140.69099 20611 ft 461 kts 20°
2026-05-07 06:01 40.78038 140.70589 20176 ft 448 kts
2026-05-07 06:01 40.81053 140.71397 19602 ft 437 kts 360°
2026-05-07 06:01 40.84054 140.71745 19074 ft 431 kts 358°
2026-05-07 06:02 40.87035 140.72088 18545 ft 429 kts 359°
2026-05-07 06:02 40.90000 140.72446 18007 ft 426 kts 359°
2026-05-07 06:02 40.92931 140.72810 17462 ft 422 kts 359°
2026-05-07 06:02 40.95832 140.73175 16944 ft 417 kts 359°
2026-05-07 06:03 40.98710 140.73537 16379 ft 413 kts 359°
2026-05-07 06:03 41.01558 140.73889 15807 ft 410 kts 359°
2026-05-07 06:03 41.04394 140.74232 15232 ft 407 kts 359°
2026-05-07 06:03 41.07216 140.74570 14516 ft 408 kts 359°
2026-05-07 06:04 41.10042 140.74910 13878 ft 407 kts 359°
2026-05-07 06:04 41.12850 140.75252 13321 ft 402 kts 359°
2026-05-07 06:04 41.15617 140.75592 12709 ft 397 kts 359°
2026-05-07 06:04 41.18355 140.75930 12102 ft 393 kts 360°
2026-05-07 06:05 41.21066 140.76264 11490 ft 390 kts 360°
2026-05-07 06:05 41.23761 140.76595 10951 ft 385 kts
2026-05-07 06:05 41.26370 140.76920 10824 ft 369 kts
2026-05-07 06:05 41.28873 140.77236 10711 ft 354 kts 360°
2026-05-07 06:06 41.31245 140.77532 10590 ft 341 kts 359°
2026-05-07 06:06 41.33568 140.77817 10474 ft 330 kts 359°
2026-05-07 06:06 41.35816 140.78088 10355 ft 319 kts 359°
2026-05-07 06:06 41.37969 140.78351 10161 ft 303 kts 359°
2026-05-07 06:07 41.40046 140.78607 9763 ft 297 kts 359°
2026-05-07 06:07 41.42071 140.78875 9592 ft 292 kts
2026-05-07 06:07 41.44054 140.79622 9346 ft 302 kts 20°
2026-05-07 06:07 41.45857 140.81091 8980 ft 308 kts 37°
2026-05-07 06:08 41.47429 140.83030 8667 ft 307 kts 40°
2026-05-07 06:08 41.48988 140.84979 8329 ft 306 kts 40°
2026-05-07 06:08 41.50534 140.86906 8050 ft 303 kts 40°
2026-05-07 06:08 41.52071 140.88818 7619 ft 300 kts 40°
2026-05-07 06:09 41.53594 140.90708 7106 ft 298 kts 40°
2026-05-07 06:09 41.55105 140.92585 6677 ft 295 kts 40°
2026-05-07 06:09 41.56600 140.94445 6307 ft 294 kts 40°
2026-05-07 06:09 41.58091 140.96298 5916 ft 290 kts 40°
2026-05-07 06:10 41.59557 140.98127 5551 ft 288 kts 40°
2026-05-07 06:10 41.61094 140.99799 5223 ft 281 kts 28°
2026-05-07 06:10 41.62832 141.00928 4821 ft 278 kts 17°
2026-05-07 06:10 41.64619 141.01870 4407 ft 273 kts 17°
2026-05-07 06:11 41.66365 141.02800 4034 ft 267 kts 17°
2026-05-07 06:11 41.68096 141.03483 3675 ft 251 kts 356°
2026-05-07 06:11 41.69734 141.03133 3348 ft 230 kts 327°
2026-05-07 06:11 41.70991 141.01945 3041 ft 216 kts 302°
2026-05-07 06:12 41.71721 141.00289 2751 ft 201 kts 284°
2026-05-07 06:12 41.72238 140.98567 2455 ft 198 kts 284°
2026-05-07 06:12 41.72743 140.96922 2175 ft 185 kts 284°
2026-05-07 06:12 41.73230 140.95328 1923 ft 184 kts 285°
2026-05-07 06:13 41.73705 140.93772 1705 ft 175 kts 285°
2026-05-07 06:13 41.74148 140.92334 1466 ft 161 kts 285°
2026-05-07 06:13 41.74564 140.90984 1267 ft 154 kts 285°
2026-05-07 06:13 41.74957 140.89699 1063 ft 144 kts 285°
2026-05-07 06:14 41.75327 140.88488 870 ft 135 kts 287°
2026-05-07 06:14 41.75676 140.87323 648 ft 135 kts 287°
2026-05-07 06:14 41.76026 140.86172 503 ft 132 kts 285°
2026-05-07 06:14 41.76331 140.85028 352 ft 131 kts 281°
2026-05-07 06:15 41.76613 140.83862 199 ft 132 kts 282°
2026-05-07 06:15 41.76871 140.82781 147 ft 109 kts 286°
2026-05-07 06:15 41.77063 140.82013 124 ft 62 kts 288°
2026-05-07 06:15 41.77145 140.81692 122 ft 15 kts 300°
2026-05-07 06:16 41.77202 140.81656 119 ft 10 kts
2026-05-07 06:16 41.77249 140.81674 119 ft 7 kts 19°
2026-05-07 06:16 41.77293 140.81680 120 ft 7 kts 345°
2026-05-07 06:16 41.77337 140.81597 121 ft 10 kts 288°
2026-05-07 06:17 41.77354 140.81529 120 ft 13 kts 288°
2026-05-07 06:17 41.77399 140.81484 120 ft 7 kts 24°
2026-05-07 06:17 41.77452 140.81512 116 ft 10 kts 17°
2026-05-07 06:17 41.77488 140.81528 115 ft 2 kts 18°
2026-05-07 06:18 41.77492 140.81530 115 ft 0 kts 18°
2026-05-07 06:37 41.77491 140.81529 118 ft 2 kts 18°
2026-05-07 06:37 41.77466 140.81518 117 ft 4 kts 18°
2026-05-07 06:37 41.77441 140.81508 117 ft 2 kts 18°
2026-05-07 06:38 41.77419 140.81500 116 ft 4 kts
2026-05-07 06:38 41.77393 140.81503 120 ft 4 kts 343°
2026-05-07 06:38 41.77383 140.81507 118 ft 0 kts 341°
2026-05-07 06:41 41.77397 140.81497 116 ft 5 kts 317°
2026-05-07 06:41 41.77376 140.81474 120 ft 5 kts 158°
2026-05-07 06:42 41.77355 140.81523 122 ft 7 kts 109°
2026-05-07 06:42 41.77336 140.81601 121 ft 11 kts 108°
2026-05-07 06:42 41.77309 140.81713 123 ft 15 kts 108°
2026-05-07 06:42 41.77273 140.81857 122 ft 17 kts 108°
2026-05-07 06:43 41.77234 140.82018 120 ft 19 kts 107°
2026-05-07 06:43 41.77192 140.82194 125 ft 20 kts 108°
2026-05-07 06:43 41.77150 140.82362 131 ft 19 kts 108°
2026-05-07 06:43 41.77109 140.82531 134 ft 19 kts 107°
2026-05-07 06:44 41.77070 140.82693 137 ft 18 kts 108°
2026-05-07 06:44 41.77030 140.82859 139 ft 19 kts 108°
2026-05-07 06:44 41.76989 140.83025 143 ft 18 kts 107°
2026-05-07 06:44 41.76949 140.83194 143 ft 20 kts 108°
2026-05-07 06:45 41.76904 140.83372 146 ft 20 kts 108°
2026-05-07 06:45 41.76860 140.83556 148 ft 21 kts 108°
2026-05-07 06:45 41.76818 140.83730 155 ft 16 kts 108°
2026-05-07 06:45 41.76786 140.83861 159 ft 14 kts 108°
2026-05-07 06:46 41.76742 140.83953 161 ft 11 kts 158°
2026-05-07 06:46 41.76665 140.83936 161 ft 12 kts 199°
2026-05-07 06:46 41.76613 140.83894 159 ft 8 kts 254°
2026-05-07 06:46 41.76632 140.83786 155 ft 20 kts 288°
2026-05-07 06:47 41.76735 140.83353 145 ft 89 kts 289°
2026-05-07 06:47 41.77004 140.82265 133 ft 154 kts 289°
2026-05-07 06:47 41.77365 140.80806 735 ft 165 kts 284°
2026-05-07 06:47 41.77524 140.79326 1718 ft 158 kts 256°
2026-05-07 06:48 41.76997 140.78109 2708 ft 154 kts 220°
2026-05-07 06:48 41.76095 140.77360 3599 ft 151 kts 214°
2026-05-07 06:48 41.75151 140.76635 3994 ft 166 kts 214°
2026-05-07 06:48 41.74112 140.75799 4226 ft 187 kts 215°
2026-05-07 06:49 41.72955 140.74820 4523 ft 207 kts 216°
2026-05-07 06:49 41.71688 140.73697 4894 ft 228 kts 217°
2026-05-07 06:49 41.70360 140.72477 5656 ft 234 kts 218°
2026-05-07 06:49 41.69016 140.71213 6499 ft 238 kts 219°
2026-05-07 06:50 41.67660 140.69913 7309 ft 242 kts 219°
2026-05-07 06:50 41.66290 140.68580 8126 ft 245 kts 219°
2026-05-07 06:50 41.64908 140.67220 8948 ft 248 kts 220°
2026-05-07 06:50 41.63509 140.65837 9758 ft 252 kts 220°
2026-05-07 06:51 41.62087 140.64426 10370 ft 261 kts 220°
2026-05-07 06:51 41.60566 140.62910 10599 ft 284 kts 220°
2026-05-07 06:51 41.58919 140.61263 10762 ft 308 kts 220°
2026-05-07 06:51 41.57149 140.59498 11037 ft 324 kts 220°
2026-05-07 06:52 41.55318 140.57683 11632 ft 330 kts 220°
2026-05-07 06:52 41.53469 140.55854 12320 ft 332 kts 220°
2026-05-07 06:52 41.51605 140.54011 13027 ft 334 kts 220°
2026-05-07 06:52 41.49730 140.52159 13723 ft 337 kts 220°
2026-05-07 06:53 41.47844 140.50297 14324 ft 339 kts 220°
2026-05-07 06:53 41.45948 140.48425 14931 ft 340 kts 220°
2026-05-07 06:53 41.44041 140.46541 15527 ft 341 kts 220°
2026-05-07 06:53 41.42129 140.44651 16115 ft 343 kts 220°
2026-05-07 06:54 41.40206 140.42751 16717 ft 345 kts 220°
2026-05-07 06:54 41.38303 140.40870 17305 ft 347 kts 220°
2026-05-07 06:54 41.36360 140.38953 17901 ft 349 kts 220°
2026-05-07 06:54 41.34402 140.37026 18456 ft 351 kts 220°
2026-05-07 06:55 41.32436 140.35092 18975 ft 353 kts 220°
2026-05-07 06:55 41.30455 140.33145 19505 ft 355 kts 220°
2026-05-07 06:55 41.28462 140.31184 20030 ft 357 kts 220°
2026-05-07 06:55 41.26456 140.29215 20542 ft 360 kts 221°
2026-05-07 06:56 41.24437 140.27233 21034 ft 362 kts 221°
2026-05-07 06:56 41.22408 140.25243 21522 ft 364 kts 221°
2026-05-07 06:56 41.20364 140.23241 21986 ft 366 kts 221°
2026-05-07 06:56 41.18309 140.21231 22442 ft 368 kts 221°
2026-05-07 06:57 41.16242 140.19211 22897 ft 370 kts 221°
2026-05-07 06:57 41.14165 140.17182 23346 ft 372 kts 221°
2026-05-07 06:57 41.12093 140.15108 23729 ft 374 kts 223°
2026-05-07 06:57 41.10065 140.12943 24094 ft 375 kts 224°
2026-05-07 06:58 41.08060 140.10721 24452 ft 376 kts 225°
2026-05-07 06:58 41.06057 140.08474 24803 ft 378 kts 225°
2026-05-07 06:58 41.04044 140.06219 25157 ft 380 kts 225°
2026-05-07 06:58 41.02013 140.03958 25511 ft 382 kts 225°